Location: Highland Meadows Observing Site
(48.4428°N, 114.5461°W)
Time: 22:22:23
(UTC-06:00)

Gurwin Techsat 1B - Visible Passes

Search period start: 24 July 2016 00:00
Search period end: 03 August 2016 00:00
Orbit: 813 x 813 km, 98.6° (Epoch: 23 July)

Date Brightness Start Highest point End Pass type
(mag) Time Alt. Az. Time Alt. Az. Time Alt. Az.
24 Jul 11.0 02:17:44 10° ENE 02:19:44 12° E 02:21:42 10° ESE visible
24 Jul 8.7 03:55:12 10° NNE 04:00:34 79° ESE 04:04:19 20° S visible
25 Jul 9.2 03:32:30 10° NNE 03:37:43 52° E 03:41:12 20° S visible
25 Jul 9.9 05:12:59 10° N 05:17:24 27° WNW 05:21:49 10° WSW visible
26 Jul 9.8 03:09:58 10° NNE 03:14:48 34° E 03:18:05 18° SSE visible
26 Jul 9.3 04:49:52 10° N 04:54:48 40° WNW 04:59:17 12° SW visible
27 Jul 10.4 02:47:40 10° NE 02:51:48 22° E 02:54:57 14° SE visible
27 Jul 8.8 04:26:54 10° N 04:32:09 59° WNW 04:36:10 17° SW visible
28 Jul 10.9 02:25:50 10° NE 02:28:42 14° E 02:31:34 10° ESE visible
28 Jul 8.6 04:04:02 10° NNE 04:09:24 88° WNW 04:13:02 21° SSW visible
29 Jul 8.9 03:41:17 10° NNE 03:46:35 61° E 03:49:54 23° S visible
29 Jul 10.0 05:21:59 10° N 05:26:08 24° WNW 05:30:16 10° WSW visible
30 Jul 9.6 03:18:41 10° NNE 03:23:42 40° E 03:26:46 21° SSE visible
30 Jul 9.6 04:58:49 10° N 05:03:34 34° WNW 05:07:58 12° SW visible
31 Jul 10.2 02:56:16 10° NE 03:00:44 26° E 03:03:38 17° SE visible
31 Jul 9.0 04:35:47 10° N 04:40:56 50° WNW 04:44:50 17° SW visible
01 Aug 10.7 02:34:12 10° NE 02:37:40 17° E 02:40:30 12° SE visible
01 Aug 8.6 04:12:53 10° NNE 04:18:13 76° WNW 04:21:42 22° SSW visible
02 Aug 11.1 02:13:17 10° ENE 02:14:32 11° E 02:15:46 10° E visible
02 Aug 8.7 03:50:05 10° NNE 03:55:26 72° ESE 03:58:34 25° S visible
02 Aug 10.2 05:31:01 10° NNW 05:34:52 21° WNW 05:38:41 10° WSW visible
